Regional Weather Roundup
Issued by NWS Newport/Morehead, NC

Current Version | Previous Version | Graphics & Text | Print | Product List | Glossary Off
Versions: 1 2 3 4 5 6 7 8 9 10 11 12 13 14 15 16 17 18 19 20 21 22 23 24 25 26 27 28 29 30 31 32 33 34 35 36 37 38 39 40 41 42 43 44

000
ASUS42 KMHX 220213
RWRMHX
WEATHER ROUNDUP FOR EASTERN NORTH CAROLINA
NATIONAL WEATHER SERVICE NEWPORT/MOREHEAD CITY NC
1000 PM EDT SAT APR 21 2018

NOTE: "FAIR" INDICATES FEW OR NO CLOUDS BELOW 12,000 FEET
WITH NO SIGNIFICANT WEATHER AND/OR OBSTRUCTIONS TO VISIBILITY

NCZ015>017-031-032-045>047-102-103-220300-
NORTH COAST

CITY           SKY/WX    TMP DP  RH WIND       PRES   REMARKS
EDENTON        FAIR      52  45  75 SE7       30.41R
ELIZABETH CITY FAIR      50  39  66 S5        30.41R
KITTY HAWK     FAIR      45  37  73 CALM      30.40S
MANTEO         FAIR      46  37  73 CALM      30.42S

$$

NCZ045>047-081-094-103-104-220300-
CENTRAL COAST

CITY           SKY/WX    TMP DP  RH WIND       PRES   REMARKS
FRISCO         FAIR      50  40  68 E6        30.41S

$$

NCZ095-097-098-100-101-220300-
SOUTHERN COAST

CITY           SKY/WX    TMP DP  RH WIND       PRES   REMARKS
BEAUFORT       FAIR      55  42  61 E3        30.38S
CEDAR ISLAND   NOT AVBL
JACKSONVILLE   FAIR      56  43  61 SE6       30.37S
PINEY ISLAND   NOT AVBL
WILMINGTON     FAIR      56  43  61 E6        30.38R


$$

NCZ011>013-027>030-043-044-078>080-089-090>093-098-220300-
COASTAL PLAIN

CITY           SKY/WX    TMP DP  RH WIND       PRES   REMARKS
AHOSKIE        FAIR      51  43  74 SE6       30.39R
CLINTON        FAIR      56  41  56 CALM      30.37R
ELIZABETHTOWN  FAIR      55  35  47 MISG      30.36S
GOLDSBORO      FAIR      56  40  55 SE7       30.35R
GREENVILLE     FAIR      55  41  58 SE9       30.38S
HAVELOCK       CLEAR     53  43  68 E3        30.40R
KENANSVILLE    FAIR      50  41  71 CALM      30.37S
KINSTON        FAIR      56  39  52 S7        30.38R
NEW BERN       FAIR      50  41  71 CALM      30.40R
RICHLANDS      FAIR      51  40  65 CALM      30.38S
ROCKY MOUNT    FAIR      49  42  77 CALM      30.36R
WASHINGTON     FAIR      51  43  74 E5        30.39S
WHITEVILLE     NOT AVBL

$$

AMZ130-135-150-152-154-156-158-170-250-252-270-ANZ085-086-088-633-658-670-220300-
MARINE OBSERVATIONS

STATION/POSITION TIME  TEMP    WIND        PRES    WAVE   SWELL
                       AIR SEA DIR/SP/G            HT/PER HT/PER
                 (UTC) (F)     (DEG/KT/KT) (MB)    (FT/S) (FT/S)
CHESAPEAKE LIGHT NOT AVBL
64 E VA BEACH    0150   49 49   90/ 10/ 12 1029.8    2/ 6   2/ 6
DUCK             0136   49 53  130/  9/ 10 1029.1
2 E DUCK         0200      52                N/A     2/ 5
OREGON INLET     0136   48 56  100/  5/  8 1029.8
13E OREGON INLT  0148      51                N/A     3/ 5   2/ 5
HATTERAS CG      0136   52 62   80/  7/  9 1029.2
DIAMOND BUOY     0200   58 73   30/ 12/ 16 1029.5
CAPE LOOKOUT     0200          100/ 11/ 12 1029.0
BEAUFORT LAB     0136   57 64  100/  5/  6 1028.9
30 SE NEW RVR IN 0108   61 66  100/ 12/ 14 1028.3
30 SE NEW RVR IN 0200      66                N/A     3/ 8
27 SE WRIGHTSVLE 0108   63 66  110/ 14/ 21 1028.4
5 SE WRIGHTSVLE  0108   61 60  110/  8/ 12 1027.8
225 S CAPE HAT   0200   65 72   60/ 12/ 16 1027.1
41 SE CHARLESTON 0200   66 67   70/ 14/ 17 1026.6

$$




USA.gov is the U.S. government's official web portal to all federal, state and local government web resources and services.